Simultaneous Nadir Overpasses (SNOs) Predictions

Prediction of SNOs between LANDSAT-8 and TERRA Satellite Orbit:

Table of predicted SNOs for the next 14.0 days since TLE Epoch: 11/29/2025
Index Date (LANDSAT-8) Time (LANDSAT-8) Lat,Lon (LANDSAT-8) SZA (LANDSAT-8 ) Date (TERRA) Time (TERRA) Lat,Lon (TERRA) SZA (TERRA ) Distance(km) Time Diff (sec)
1 12/11/2025 06:22:42 -81.83, -35.04 70.98 12/11/2025 06:23:56 -81.83, -35.23 70.97 2.98 74
2 12/11/2025 07:12:09 81.82, 132.26 108.98 12/11/2025 07:13:15 81.83, 132.40 109.04 2.26 66
3 12/11/2025 08:01:35 -81.83, -59.76 70.98 12/11/2025 08:02:33 -81.82, -59.65 70.94 1.94 58
4 12/11/2025 08:51:00 81.83, 107.97 109.04 12/11/2025 08:51:51 81.82, 107.98 109.06 0.83 51
5 12/11/2025 09:40:27 -81.83, -84.48 70.97 12/11/2025 09:41:10 -81.82, -84.49 70.95 0.30 43
6 12/11/2025 10:29:53 81.83, 83.25 109.05 12/11/2025 10:30:29 81.83, 83.13 109.05 1.82 36
7 12/11/2025 11:19:20 -81.83,-109.20 70.97 12/11/2025 11:19:48 -81.83,-109.33 70.97 2.15 28
8 12/11/2025 12:08:46 81.83, 58.53 109.05 12/11/2025 12:09:06 81.82, 58.71 109.08 3.03 20
9 12/11/2025 12:58:13 -81.83,-133.92 70.96 12/11/2025 12:58:25 -81.82,-133.76 70.94 2.61 12
10 12/11/2025 13:47:39 81.83, 33.81 109.05 12/11/2025 13:47:44 81.82, 33.86 109.06 0.96 5
11 12/11/2025 14:37:06 -81.83,-158.64 70.96 12/11/2025 14:37:03 -81.83,-158.60 70.96 0.74 3
12 12/11/2025 15:26:32 81.83, 9.08 109.06 12/11/2025 15:26:22 81.83, 9.02 109.05 1.11 10
13 12/11/2025 16:15:59 -81.83, 176.64 70.96 12/11/2025 16:15:41 -81.84, 176.56 70.97 1.58 18
14 12/11/2025 17:05:25 81.83, -15.64 109.06 12/11/2025 17:05:00 81.84, -15.82 109.03 3.17 25
15 12/11/2025 17:54:51 -81.83, 152.34 70.90 12/11/2025 17:54:18 -81.83, 152.13 70.94 3.30 33
16 12/11/2025 18:44:18 81.83, -40.36 109.07 12/11/2025 18:43:37 81.83, -40.25 109.06 1.74 41
17 12/11/2025 19:33:44 -81.83, 127.62 70.89 12/11/2025 19:32:55 -81.82, 127.71 70.91 1.74 49
18 12/11/2025 20:23:10 81.83, -64.65 109.12 12/11/2025 20:22:14 81.82, -64.68 109.09 0.97 56
19 12/11/2025 21:12:37 -81.83, 102.90 70.89 12/11/2025 21:11:33 -81.83, 102.87 70.93 0.63 64



Historial Predications of SNOs between LANDSAT-8 and TERRA
